Location: Ahausen
(50.4985°N, 8.2722°E)
Time: 10:58:02
(UTC+00:00)

NOSS 3-2 (A) - Pass Details

Date: 18 September 2020
Orbit: 795 x 1413 km, 63.4° (Epoch: 02 October)

Event Time Altitude Azimuth Distance (km) Brightness Sun altitude
Rises 18:08:49 0° 313° (NW) 3,832 7.7 -6.5°
Reaches altitude 10° 18:11:23 10° 318° (NW) 2,962 6.9 -6.9°
Maximum altitude 18:18:26 57° 37° (NE) 1,415 4.2 -8.0°
Drops below altitude 10° 18:26:31 10° 115° (ESE) 3,374 5.7 -9.2°
Enters shadow 18:26:32 10° 115° (ESE) 3,376 5.7 -9.2°
